This is the latest recevied weather packets stored in our database for station/object HB9FHL-13. If no packets are shown the sender has not sent any weather packets the latest 10 day(s).
| Time | Temp. | Humidity | Pressure | Rain* | Wind** | Luminosity | Snow |
|---|---|---|---|---|---|---|---|
| 1777679907 | 15.56° C | - | 1023.1 hPa | 0 mm | - | - | - |
| 1777679606 | 16.11° C | - | 1025.4 hPa | 0 mm | - | - | - |
| 1777679306 | 16.67° C | - | 1021 hPa | 0 mm | - | - | - |
| 1777679005 | 16.67° C | - | 1024.2 hPa | 0 mm | - | - | - |
| 1777678705 | 16.67° C | - | 1026.3 hPa | 0 mm | - | - | - |
| 1777678404 | 16.67° C | - | 1020.1 hPa | 0 mm | - | - | - |
| 1777678104 | 16.67° C | - | 1021.1 hPa | 0 mm | - | - | - |
| 1777677803 | 16.67° C | - | 1025 hPa | 0 mm | - | - | - |
| 1777677503 | 17.22° C | - | 1028.1 hPa | 0 mm | - | - | - |
| 1777677201 | 17.78° C | - | 1025.4 hPa | 0 mm | - | - | - |
| 1777676901 | 17.78° C | - | 1021 hPa | 0 mm | - | - | - |
| 1777676600 | 16.67° C | - | 1029 hPa | 0 mm | - | - | - |
| 1777676300 | 17.78° C | - | 1023.3 hPa | 0 mm | - | - | - |
| 1777675999 | 17.78° C | - | 1027.1 hPa | 0 mm | - | - | - |
| 1777675699 | 17.78° C | - | 1022 hPa | 0 mm | - | - | - |
| 1777675398 | 16.11° C | - | 1024 hPa | 0 mm | - | - | - |
| 1777675098 | 16.67° C | - | 1025.1 hPa | 0 mm | - | - | - |
| 1777674797 | 16.67° C | - | 1023.2 hPa | 0 mm | - | - | - |
| 1777674497 | 17.22° C | - | 1023.5 hPa | 0 mm | - | - | - |
| 1777674196 | 16.67° C | - | 1022.8 hPa | 0 mm | - | - | - |
| 1777673895 | 17.78° C | - | 1024 hPa | 0 mm | - | - | - |
| 1777673594 | 16.67° C | - | 1022.3 hPa | 0 mm | - | - | - |
| 1777673294 | 17.22° C | - | 1024 hPa | 0 mm | - | - | - |
| 1777672993 | 16.67° C | - | 1022.4 hPa | 0 mm | - | - | - |
| 1777672392 | 17.78° C | - | 1026.2 hPa | 0 mm | - | - | - |
* Rain since midnight (hover to see other rain measurements)
** Current wind speed in m/s (hover to see current wind gust speed)